Flag Weather past 2 weeks in Tours, France

Now
50 °F

Passing clouds.


Feels Like: 46 °F
Forecast: 48 / 61 °F
Wind: 9 mph from East

Location: Tours Airport

Current Time: Nov 27, 2014 at 10:11:30 PM

Latest Report: Nov 27, 2014 at 9:00 PM


Visibility: N/A

Pressure: 29.50 "Hg

Humidity: 94%

Dew point: 48 °F

Location of ToursLocation

Historic Weather in Tours — Graph

°F

Tours temperature yesterday

Maximum temperature yesterday: 59 °F (at 3:00 PM)
Minimum temperature yesterday: 50 °F (at 7:00 PM)
Average temperature yesterday: 54 °F

Past Weeks' High & Low Weather Summary

 TemperatureHumidityPressure
High64 °F (Nov 23, 2:00 PM)100% (Nov 13, 12:00 AM)30.18 "Hg (Nov 13, 12:00 AM)
Low41 °F (Nov 18, 11:00 PM)59% (Nov 13, 2:00 PM)29.42 "Hg (Nov 16, 8:00 AM)
Average50 °F91%29.83 "Hg
* Reported Nov 12 9:00 PM — Nov 27 9:00 PM, Tours, Weather by CustomWeather, © 2014

Note: Actual official high and low records may vary slightly from our data, if they occured in-between our weather recording intervals... More about our weather records

Advertising

Tours weather history for previous 24 hours

 ConditionsComfort  
Time TempWeatherWind HumidityBarometerVisibility
9:00 PM
Nov 27
50 °FPassing clouds.9 mph94%29.50 "HgN/A
8:30 PM52 °FPassing clouds.13 mph94%29.50 "HgN/A
8:00 PM50 °FPassing clouds.12 mph100%29.53 "HgN/A
7:30 PM50 °FPartly cloudy.12 mph94%29.53 "HgN/A
7:00 PM50 °FClear.9 mph94%29.53 "Hg10 mi
6:30 PM52 °FClear.9 mph88%29.53 "HgN/A
6:00 PM52 °FClear.8 mph88%29.53 "HgN/A
5:30 PM52 °FPassing clouds.9 mph88%29.56 "HgN/A
5:00 PM52 °FPartly sunny.7 mph94%29.56 "HgN/A
4:30 PM54 °FClear.8 mph88%29.56 "HgN/A
4:00 PM54 °FBroken clouds.6 mph88%29.56 "HgN/A
3:30 PM54 °FBroken clouds.7 mph94%29.56 "HgN/A
3:00 PM54 °FPassing clouds.5 mph100%29.56 "HgN/A
2:30 PM52 °FLow clouds.5 mph100%29.56 "Hg4 mi
2:00 PM50 °FFog.5 mph100%29.59 "Hg2 mi
1:30 PM50 °FFog.7 mph100%29.62 "Hg1 mi
1:00 PM50 °FFog.6 mph100%29.62 "Hg0 mi
12:00 PM48 °FFog.6 mph100%29.65 "Hg0 mi
11:30 AM48 °FFog.5 mph100%29.65 "Hg0 mi
11:00 AM46 °FFog.6 mph100%29.68 "Hg0 mi
10:30 AM46 °FFog.3 mph100%29.68 "Hg0 mi
10:00 AM46 °FFog.2 mph100%29.68 "Hg0 mi
9:30 AM46 °FFog.2 mph100%29.68 "Hg0 mi
9:00 AM46 °FFog.3 mph100%29.68 "Hg0 mi
8:30 AM46 °FFog.5 mph100%29.68 "Hg0 mi
8:00 AM46 °FFog.3 mph100%29.68 "Hg0 mi
7:30 AM48 °FFog.3 mph100%29.68 "Hg0 mi
7:00 AM48 °FFog.2 mph100%29.68 "Hg0 mi
6:30 AM48 °FFog.3 mph100%29.71 "Hg0 mi
6:00 AM48 °FFog.3 mph100%29.71 "Hg0 mi
5:30 AM50 °FFog.2 mph94%29.71 "Hg0 mi
5:00 AM48 °FFog.No wind100%29.71 "Hg0 mi
4:30 AM48 °FFog.3 mph100%29.74 "Hg2 mi
4:00 AM48 °FFog.5 mph100%29.74 "Hg1 mi
3:30 AM48 °FFog.5 mph100%29.74 "Hg1 mi
3:00 AM48 °FFog.3 mph94%29.74 "Hg2 mi
2:30 AM50 °FFog.3 mph94%29.77 "Hg3 mi
2:00 AM50 °FOvercast.2 mph94%29.77 "Hg5 mi
1:30 AM50 °FPartly cloudy.3 mph94%29.77 "Hg4 mi
12:30 AM50 °FMostly cloudy.1 mph94%29.80 "Hg4 mi
12:00 AM50 °FMostly cloudy.3 mph94%29.80 "Hg4 mi
11:30 PM
Nov 26
50 °FMostly cloudy.2 mph94%29.80 "Hg4 mi
11:00 PM50 °FPassing clouds.6 mph94%29.80 "Hg4 mi
10:30 PM50 °FPassing clouds.3 mph94%29.80 "Hg4 mi
10:00 PM50 °FPartly cloudy.5 mph94%29.80 "Hg5 mi
Weather by CustomWeather, © 2014

See weather overviewHow to use our weather pages